| time (UTC) | temp C | wind direction | speed KPH | gust KPH | rain 1hr cm | rain 24hr cm | rain mn cm | humidity % | barometer mb |
| 20260509224601 | 31 | 244 | 1.6 | 6.4 | 0.00 | 0.13 | 0.13 | 58 | 1009.6 |
| 20260509224544 | 31 | 244 | 1.6 | 9.7 | 0.00 | 0.13 | 0.13 | 57 | 1007.4 |
| 20260509223057 | 32 | 216 | 1.6 | 9.7 | 0.00 | 0.13 | 0.13 | 56 | 1009.6 |
| 20260509223043 | 32 | 215 | 0.0 | 9.7 | 0.00 | 0.13 | 0.13 | 56 | 1007.4 |
| 20260509221556 | 32 | 198 | 1.6 | 6.4 | 0.00 | 0.13 | 0.13 | 57 | 1009.6 |
| 20260509221546 | 32 | 0 | 0.0 | 6.4 | 0.00 | 0.13 | 0.13 | 57 | 1007.4 |
| 20260509220103 | 32 | 243 | 4.8 | 12.9 | 0.00 | 0.13 | 0.13 | 55 | 1009.7 |
| 20260509220048 | 32 | 217 | 1.6 | 11.3 | 0.00 | 0.13 | 0.13 | 55 | 1007.4 |
| 20260509214600 | 32 | 239 | 3.2 | 9.7 | 0.00 | 0.13 | 0.13 | 57 | 1009.7 |
| 20260509214540 | 32 | 246 | 1.6 | 9.7 | 0.00 | 0.13 | 0.13 | 55 | 1007.4 |
| 20260509213119 | 33 | 169 | 0.0 | 9.7 | 0.00 | 0.13 | 0.13 | 54 | 1009.8 |
| 20260509213057 | 33 | 0 | 0.0 | 6.4 | 0.00 | 0.13 | 0.13 | 54 | 1007.5 |
| 20260509211553 | 33 | 238 | 1.6 | 11.3 | 0.00 | 0.13 | 0.13 | 57 | 1010.0 |
| 20260509211542 | 33 | 225 | 3.2 | 11.3 | 0.00 | 0.13 | 0.13 | 57 | 1007.7 |
| 20260509210100 | 32 | 274 | 0.0 | 9.7 | 0.00 | 0.13 | 0.13 | 57 | 1010.3 |
| 20260509210058 | 32 | 0 | 1.6 | 9.7 | 0.00 | 0.13 | 0.13 | 57 | 1007.9 |
| 20260509204545 | 32 | 234 | 0.0 | 16.1 | 0.00 | 0.13 | 0.13 | 59 | 1010.5 |
| 20260509204542 | 32 | 0 | 0.0 | 16.1 | 0.00 | 0.13 | 0.13 | 58 | 1008.0 |
| 20260509203043 | 32 | 263 | 4.8 | 14.5 | 0.00 | 0.13 | 0.13 | 61 | 1010.8 |
| 20260509201543 | 32 | 240 | 1.6 | 11.3 | 0.00 | 0.13 | 0.13 | 60 | 1008.7 |
| 20260509201539 | 32 | 250 | 3.2 | 9.7 | 0.00 | 0.13 | 0.13 | 60 | 1011.1 |
| 20260509200043 | 31 | 0 | 3.2 | 12.9 | 0.00 | 0.13 | 0.13 | 62 | 1009.0 |
| 20260509200037 | 31 | 205 | 1.6 | 12.9 | 0.00 | 0.13 | 0.13 | 64 | 1011.3 |
| 20260509194542 | 31 | 0 | 0.0 | 12.9 | 0.00 | 0.13 | 0.13 | 67 | 1009.3 |
| 20260509194536 | 31 | 252 | 0.0 | 12.9 | 0.00 | 0.13 | 0.13 | 67 | 1011.6 |
| 20260509193044 | 31 | 0 | 0.0 | 11.3 | 0.00 | 0.13 | 0.13 | 62 | 1009.6 |
| 20260509193042 | 31 | 306 | 0.0 | 11.3 | 0.00 | 0.13 | 0.13 | 62 | 1011.9 |
| 20260509191546 | 31 | 0 | 1.6 | 14.5 | 0.00 | 0.13 | 0.13 | 65 | 1009.8 |
| 20260509191539 | 31 | 238 | 1.6 | 12.9 | 0.00 | 0.13 | 0.13 | 66 | 1012.0 |
| 20260509190043 | 31 | 213 | 3.2 | 11.3 | 0.00 | 0.13 | 0.13 | 64 | 1009.8 |
| 20260509190032 | 31 | 213 | 1.6 | 11.3 | 0.00 | 0.13 | 0.13 | 64 | 1012.1 |
| 20260509184553 | 31 | 0 | 1.6 | 11.3 | 0.00 | 0.13 | 0.13 | 68 | 1009.9 |
| 20260509184536 | 31 | 258 | 1.6 | 11.3 | 0.00 | 0.13 | 0.13 | 68 | 1012.3 |
| 20260509183042 | 30 | 271 | 1.6 | 8.0 | 0.00 | 0.13 | 0.13 | 67 | 1010.1 |
| 20260509183031 | 30 | 259 | 1.6 | 8.0 | 0.00 | 0.13 | 0.13 | 68 | 1012.4 |
| 20260509181556 | 30 | 0 | 1.6 | 16.1 | 0.00 | 0.13 | 0.13 | 66 | 1010.2 |
| 20260509181526 | 30 | 264 | 1.6 | 16.1 | 0.00 | 0.13 | 0.13 | 67 | 1012.5 |
| 20260509180049 | 30 | 225 | 4.8 | 14.5 | 0.00 | 0.13 | 0.13 | 69 | 1010.4 |
| 20260509180023 | 30 | 227 | 3.2 | 14.5 | 0.00 | 0.13 | 0.13 | 69 | 1012.8 |
| 20260509174546 | 29 | 284 | 3.2 | 12.9 | 0.00 | 0.13 | 0.13 | 71 | 1010.4 |
| 20260509174520 | 29 | 288 | 3.2 | 12.9 | 0.00 | 0.13 | 0.13 | 72 | 1013.0 |
| 20260509173046 | 28 | 248 | 1.6 | 14.5 | 0.00 | 0.13 | 0.13 | 75 | 1010.6 |
| 20260509173019 | 28 | 248 | 1.6 | 14.5 | 0.00 | 0.13 | 0.13 | 75 | 1013.1 |
| 20260509171543 | 27 | 274 | 3.2 | 14.5 | 0.00 | 0.13 | 0.13 | 78 | 1010.8 |
| 20260509171513 | 27 | 269 | 3.2 | 14.5 | 0.00 | 0.13 | 0.13 | 78 | 1013.3 |
| 20260509170048 | 27 | 227 | 3.2 | 11.3 | 0.00 | 0.13 | 0.13 | 78 | 1010.8 |
| 20260509170014 | 27 | 217 | 1.6 | 11.3 | 0.00 | 0.13 | 0.13 | 77 | 1013.5 |
| 20260509164543 | 27 | 277 | 1.6 | 14.5 | 0.00 | 0.13 | 0.13 | 82 | 1010.7 |
| 20260509164507 | 26 | 277 | 1.6 | 11.3 | 0.00 | 0.13 | 0.13 | 83 | 1013.4 |
| 20260509163043 | 26 | 216 | 4.8 | 14.5 | 0.00 | 0.13 | 0.13 | 85 | 1010.4 |
| 20260509163004 | 26 | 221 | 4.8 | 14.5 | 0.00 | 0.13 | 0.13 | 86 | 1013.2 |
| 20260509161605 | 25 | 226 | 0.0 | 14.5 | 0.00 | 0.13 | 0.13 | 91 | 1013.6 |
| 20260509161542 | 25 | 0 | 1.6 | 14.5 | 0.00 | 0.13 | 0.13 | 91 | 1010.8 |
| 20260509160058 | 25 | 234 | 1.6 | 8.0 | 0.00 | 0.13 | 0.13 | 96 | 1013.6 |
| 20260509160043 | 24 | 0 | 0.0 | 6.4 | 0.00 | 0.13 | 0.13 | 96 | 1011.0 |
| 20260509154617 | 23 | 0 | 0.0 | 6.4 | 0.00 | 0.13 | 0.13 | 97 | 1011.1 |
| 20260509154603 | 23 | 183 | 0.0 | 4.8 | 0.00 | 0.13 | 0.13 | 97 | 1013.8 |
| 20260509153101 | 23 | 173 | 3.2 | 9.7 | 0.00 | 0.13 | 0.13 | 97 | 1014.0 |
| 20260509153058 | 23 | 180 | 4.8 | 11.3 | 0.00 | 0.13 | 0.13 | 97 | 1011.5 |
| 20260509151550 | 23 | 167 | 3.2 | 8.0 | 0.00 | 0.13 | 0.13 | 97 | 1014.0 |
| 20260509151548 | 23 | 167 | 3.2 | 8.0 | 0.00 | 0.13 | 0.13 | 97 | 1011.5 |
| 20260509150047 | 23 | 176 | 1.6 | 4.8 | 0.00 | 0.13 | 0.13 | 97 | 1011.5 |
| 20260509144542 | 23 | 194 | 1.6 | 4.8 | 0.00 | 0.13 | 0.13 | 97 | 1011.3 |
| 20260509144540 | 23 | 195 | 1.6 | 4.8 | 0.00 | 0.13 | 0.13 | 98 | 1013.9 |
| 20260509143051 | 22 | 0 | 0.0 | 6.4 | 0.00 | 0.13 | 0.13 | 97 | 1011.5 |
| 20260509143037 | 22 | 150 | 0.0 | 3.2 | 0.00 | 0.13 | 0.13 | 98 | 1014.1 |
| 20260509141546 | 22 | 101 | 0.0 | 4.8 | 0.00 | 0.13 | 0.13 | 97 | 1011.6 |
| 20260509141535 | 22 | 101 | 1.6 | 4.8 | 0.00 | 0.13 | 0.13 | 97 | 1014.0 |
| 20260509140052 | 22 | 0 | 0.0 | 1.6 | 0.00 | 0.13 | 0.13 | 97 | 1011.0 |
| 20260509140042 | 22 | 338 | 0.0 | 0.0 | 0.00 | 0.13 | 0.13 | 97 | 1013.5 |
| 20260509134542 | 22 | 0 | 0.0 | 8.0 | 0.00 | 0.13 | 0.13 | 97 | 1010.3 |
| 20260509134538 | 22 | 338 | 0.0 | 8.0 | 0.00 | 0.13 | 0.13 | 97 | 1013.0 |
| 20260509133041 | 22 | 24 | 1.6 | 6.4 | 0.00 | 0.13 | 0.13 | 97 | 1010.2 |
| 20260509133029 | 22 | 24 | 1.6 | 6.4 | 0.00 | 0.13 | 0.13 | 98 | 1012.9 |
| 20260509131544 | 22 | 145 | 0.0 | 9.7 | 0.13 | 0.13 | 0.13 | 97 | 1010.3 |
| 20260509131532 | 22 | 145 | 0.0 | 6.4 | 0.13 | 0.13 | 0.13 | 98 | 1013.0 |
| 20260509130046 | 22 | 92 | 3.2 | 6.4 | 0.13 | 0.13 | 0.13 | 97 | 1011.0 |
| 20260509130022 | 22 | 92 | 3.2 | 6.4 | 0.13 | 0.13 | 0.13 | 97 | 1013.4 |
| 20260509124543 | 22 | 46 | 1.6 | 6.4 | 0.13 | 0.13 | 0.13 | 97 | 1010.7 |
| 20260509124518 | 22 | 46 | 1.6 | 6.4 | 0.13 | 0.13 | 0.13 | 98 | 1013.3 |
| 20260509123043 | 22 | 0 | 4.8 | 9.7 | 0.13 | 0.13 | 0.13 | 96 | 1011.0 |
| 20260509123017 | 22 | 55 | 4.8 | 9.7 | 0.13 | 0.13 | 0.13 | 97 | 1013.5 |
| 20260509121545 | 22 | 0 | 3.2 | 16.1 | 0.00 | 0.00 | 0.00 | 96 | 1011.0 |
| 20260509121512 | 22 | 41 | 3.2 | 16.1 | 0.00 | 0.00 | 0.00 | 97 | 1013.7 |
| 20260509120052 | 22 | 9 | 3.2 | 11.3 | 0.00 | 0.00 | 0.00 | 96 | 1010.9 |
| 20260509120005 | 22 | 9 | 4.8 | 11.3 | 0.00 | 0.00 | 0.00 | 96 | 1013.6 |
| 20260509114548 | 22 | 38 | 0.0 | 4.8 | 0.00 | 0.00 | 0.00 | 96 | 1010.4 |
| 20260509114504 | 22 | 38 | 0.0 | 4.8 | 0.00 | 0.00 | 0.00 | 96 | 1013.1 |
| 20260509113039 | 22 | 0 | 0.0 | 4.8 | 0.00 | 0.00 | 0.00 | 96 | 1010.1 |
| 20260509113002 | 22 | 38 | 0.0 | 4.8 | 0.00 | 0.00 | 0.00 | 96 | 1012.7 |
| 20260509111558 | 22 | 36 | 0.0 | 6.4 | 0.00 | 0.00 | 0.00 | 96 | 1012.8 |
| 20260509111542 | 22 | 0 | 1.6 | 8.0 | 0.00 | 0.00 | 0.00 | 96 | 1010.0 |
| 20260509110100 | 22 | 38 | 1.6 | 8.0 | 0.00 | 0.00 | 0.00 | 96 | 1012.6 |
| 20260509110045 | 22 | 38 | 1.6 | 8.0 | 0.00 | 0.00 | 0.00 | 96 | 1009.9 |
| 20260509104552 | 22 | 46 | 0.0 | 6.4 | 0.00 | 0.00 | 0.00 | 96 | 1012.7 |
| 20260509104543 | 22 | 0 | 0.0 | 6.4 | 0.00 | 0.00 | 0.00 | 96 | 1010.0 |
| 20260509103046 | 22 | 59 | 0.0 | 9.7 | 0.00 | 0.00 | 0.00 | 96 | 1012.9 |
| 20260509103042 | 22 | 0 | 1.6 | 11.3 | 0.00 | 0.00 | 0.00 | 96 | 1010.2 |
| 20260509101552 | 22 | 60 | 3.2 | 8.0 | 0.00 | 0.00 | 0.00 | 96 | 1010.0 |
| 20260509100048 | 22 | 40 | 0.0 | 4.8 | 0.00 | 0.00 | 0.00 | 95 | 1009.8 |
| 20260509100045 | 22 | 40 | 0.0 | 4.8 | 0.00 | 0.00 | 0.00 | 96 | 1012.6 |
| 20260509094548 | 22 | 39 | 1.6 | 8.0 | 0.00 | 0.00 | 0.00 | 95 | 1009.3 |
| 20260509094543 | 22 | 39 | 0.0 | 8.0 | 0.00 | 0.00 | 0.00 | 96 | 1011.8 |
| 20260509093043 | 22 | 11 | 0.0 | 8.0 | 0.00 | 0.00 | 0.00 | 95 | 1009.2 |
| 20260509091602 | 22 | 0 | 1.6 | 9.7 | 0.00 | 0.00 | 0.00 | 95 | 1008.8 |
| 20260509091549 | 22 | 47 | 1.6 | 9.7 | 0.00 | 0.00 | 0.00 | 96 | 1011.4 |
| 20260509090044 | 22 | 80 | 1.6 | 4.8 | 0.00 | 0.00 | 0.00 | 96 | 1011.6 |
| 20260509084547 | 22 | 175 | 0.0 | 3.2 | 0.00 | 0.00 | 0.00 | 95 | 1009.0 |
| 20260509084545 | 22 | 175 | 0.0 | 3.2 | 0.00 | 0.00 | 0.00 | 96 | 1011.6 |
| 20260509083048 | 22 | 0 | 0.0 | 6.4 | 0.00 | 0.00 | 0.00 | 95 | 1009.3 |
| 20260509083039 | 22 | 178 | 0.0 | 6.4 | 0.00 | 0.00 | 0.00 | 96 | 1011.8 |
| 20260509081543 | 22 | 0 | 1.6 | 4.8 | 0.00 | 0.00 | 0.00 | 95 | 1009.4 |
| 20260509081537 | 22 | 182 | 1.6 | 4.8 | 0.00 | 0.00 | 0.00 | 95 | 1011.9 |
| 20260509080051 | 22 | 146 | 1.6 | 17.7 | 0.00 | 0.00 | 0.00 | 95 | 1009.5 |
| 20260509080040 | 22 | 146 | 1.6 | 9.7 | 0.00 | 0.00 | 0.00 | 95 | 1011.9 |
| 20260509074545 | 22 | 155 | 4.8 | 14.5 | 0.00 | 0.00 | 0.00 | 95 | 1009.3 |
| 20260509074535 | 22 | 165 | 4.8 | 14.5 | 0.00 | 0.00 | 0.00 | 95 | 1011.9 |
| 20260509073114 | 22 | 122 | 6.4 | 17.7 | 0.00 | 0.00 | 0.00 | 94 | 1009.1 |
| 20260509073104 | 22 | 130 | 6.4 | 17.7 | 0.00 | 0.00 | 0.00 | 95 | 1011.8 |
| 20260509071544 | 22 | 140 | 1.6 | 14.5 | 0.00 | 0.00 | 0.00 | 94 | 1009.4 |
| 20260509071532 | 22 | 140 | 3.2 | 12.9 | 0.00 | 0.00 | 0.00 | 94 | 1012.1 |
| 20260509070047 | 22 | 94 | 6.4 | 14.5 | 0.00 | 0.00 | 0.00 | 94 | 1009.2 |
| 20260509070028 | 22 | 94 | 6.4 | 14.5 | 0.00 | 0.00 | 0.00 | 94 | 1011.9 |
| 20260509064543 | 22 | 141 | 4.8 | 11.3 | 0.00 | 0.00 | 0.00 | 94 | 1009.7 |
| 20260509064524 | 22 | 142 | 4.8 | 11.3 | 0.00 | 0.00 | 0.00 | 94 | 1012.5 |
| 20260509063040 | 22 | 115 | 4.8 | 11.3 | 0.00 | 0.00 | 0.00 | 93 | 1009.6 |
| 20260509063026 | 22 | 143 | 6.4 | 12.9 | 0.00 | 0.00 | 0.00 | 94 | 1012.5 |
| 20260509061544 | 22 | 102 | 3.2 | 11.3 | 0.00 | 0.00 | 0.00 | 93 | 1009.8 |
| 20260509061515 | 22 | 108 | 1.6 | 11.3 | 0.00 | 0.00 | 0.00 | 94 | 1012.8 |
| 20260509060058 | 22 | 0 | 3.2 | 9.7 | 0.00 | 0.00 | 0.00 | 93 | 1010.0 |
| 20260509060022 | 22 | 161 | 3.2 | 9.7 | 0.00 | 0.00 | 0.00 | 93 | 1012.9 |
| 20260509054555 | 22 | 130 | 4.8 | 11.3 | 0.00 | 0.00 | 0.00 | 93 | 1009.9 |
| 20260509054511 | 22 | 88 | 4.8 | 11.3 | 0.00 | 0.00 | 0.00 | 93 | 1012.7 |
| 20260509053042 | 22 | 112 | 4.8 | 11.3 | 0.00 | 0.00 | 0.00 | 92 | 1010.2 |
| 20260509053014 | 22 | 107 | 4.8 | 11.3 | 0.00 | 0.00 | 0.00 | 93 | 1013.0 |
| 20260509051541 | 22 | 107 | 1.6 | 11.3 | 0.00 | 0.00 | 0.00 | 92 | 1010.6 |
| 20260509051506 | 22 | 107 | 1.6 | 6.4 | 0.00 | 0.00 | 0.00 | 93 | 1013.2 |
| 20260509050101 | 22 | 151 | 3.2 | 8.0 | 0.00 | 0.00 | 0.00 | 92 | 1013.2 |
| 20260509050050 | 22 | 151 | 3.2 | 9.7 | 0.00 | 0.00 | 0.00 | 92 | 1010.8 |
| 20260509044600 | 22 | 131 | 1.6 | 12.9 | 0.00 | 0.00 | 0.00 | 92 | 1013.1 |
| 20260509044546 | 22 | 131 | 3.2 | 12.9 | 0.00 | 0.00 | 0.00 | 92 | 1010.5 |
| 20260509043059 | 22 | 94 | 3.2 | 9.7 | 0.00 | 0.00 | 0.00 | 92 | 1012.8 |
| 20260509043050 | 22 | 90 | 3.2 | 9.7 | 0.00 | 0.00 | 0.00 | 91 | 1010.3 |
| 20260509041556 | 22 | 119 | 1.6 | 6.4 | 0.00 | 0.00 | 0.00 | 92 | 1012.9 |
| 20260509041544 | 22 | 119 | 1.6 | 9.7 | 0.00 | 0.00 | 0.00 | 91 | 1010.2 |
| 20260509040124 | 22 | 98 | 0.0 | 6.4 | 0.00 | 0.00 | 0.00 | 91 | 1012.8 |
| 20260509034600 | 22 | 104 | 0.0 | 6.4 | 0.00 | 0.00 | 0.00 | 90 | 1012.4 |
| 20260509034548 | 22 | 0 | 0.0 | 9.7 | 0.00 | 0.00 | 0.00 | 90 | 1009.6 |
| 20260509033055 | 22 | 107 | 1.6 | 6.4 | 0.00 | 0.00 | 0.00 | 90 | 1011.9 |
| 20260509033047 | 22 | 107 | 1.6 | 6.4 | 0.00 | 0.00 | 0.00 | 89 | 1009.1 |
| 20260509031558 | 22 | 48 | 3.2 | 8.0 | 0.00 | 0.00 | 0.00 | 90 | 1011.9 |
| 20260509031548 | 22 | 46 | 3.2 | 8.0 | 0.00 | 0.00 | 0.00 | 89 | 1009.3 |
| 20260509030057 | 22 | 107 | 3.2 | 11.3 | 0.00 | 0.00 | 0.00 | 89 | 1011.9 |
| 20260509030049 | 22 | 107 | 1.6 | 14.5 | 0.00 | 0.00 | 0.00 | 88 | 1009.4 |
| 20260509024556 | 23 | 98 | 3.2 | 12.9 | 0.00 | 0.00 | 0.00 | 88 | 1011.8 |
| 20260509024544 | 23 | 86 | 3.2 | 12.9 | 0.00 | 0.00 | 0.00 | 88 | 1009.2 |
| 20260509023053 | 23 | 119 | 3.2 | 12.9 | 0.00 | 0.00 | 0.00 | 88 | 1011.7 |
| 20260509023046 | 23 | 119 | 6.4 | 12.9 | 0.00 | 0.00 | 0.00 | 87 | 1009.0 |
| 20260509021552 | 23 | 70 | 3.2 | 9.7 | 0.00 | 0.00 | 0.00 | 87 | 1011.7 |
| 20260509021548 | 23 | 78 | 3.2 | 9.7 | 0.00 | 0.00 | 0.00 | 87 | 1009.1 |
| 20260509020051 | 23 | 56 | 3.2 | 8.0 | 0.00 | 0.00 | 0.00 | 85 | 1008.6 |
| 20260509014551 | 23 | 48 | 1.6 | 6.4 | 0.00 | 0.00 | 0.00 | 85 | 1011.0 |
| 20260509014544 | 23 | 48 | 1.6 | 8.0 | 0.00 | 0.00 | 0.00 | 84 | 1008.3 |
| 20260509013053 | 23 | 57 | 1.6 | 6.4 | 0.00 | 0.00 | 0.00 | 84 | 1010.8 |
| 20260509013051 | 23 | 57 | 1.6 | 6.4 | 0.00 | 0.00 | 0.00 | 83 | 1007.9 |
| 20260509011558 | 23 | 45 | 3.2 | 8.0 | 0.00 | 0.00 | 0.00 | 83 | 1010.9 |
| 20260509011556 | 23 | 45 | 3.2 | 9.7 | 0.00 | 0.00 | 0.00 | 82 | 1008.2 |
| 20260509010050 | 24 | 73 | 3.2 | 9.7 | 0.00 | 0.00 | 0.00 | 82 | 1010.7 |
| 20260509004605 | 24 | 78 | 3.2 | 11.3 | 0.00 | 0.00 | 0.00 | 81 | 1010.6 |
| 20260509003049 | 25 | 90 | 3.2 | 12.9 | 0.00 | 0.00 | 0.00 | 80 | 1010.6 |
| 20260509003044 | 25 | 49 | 4.8 | 14.5 | 0.00 | 0.00 | 0.00 | 80 | 1007.9 |
| 20260509001547 | 25 | 105 | 6.4 | 12.9 | 0.00 | 0.00 | 0.00 | 79 | 1010.7 |
| 20260509001542 | 25 | 85 | 6.4 | 12.9 | 0.00 | 0.00 | 0.00 | 79 | 1007.8 |
| 20260509000047 | 25 | 32 | 3.2 | 6.4 | 0.00 | 0.00 | 0.00 | 79 | 1010.8 |
| 20260509000042 | 25 | 32 | 3.2 | 6.4 | 0.00 | 0.00 | 0.00 | 79 | 1008.0 |
| 20260508234548 | 25 | 44 | 4.8 | 12.9 | 0.00 | 0.00 | 0.00 | 79 | 1008.0 |
| 20260508234546 | 25 | 48 | 6.4 | 11.3 | 0.00 | 0.00 | 0.00 | 79 | 1010.8 |
| 20260508233045 | 25 | 118 | 6.4 | 11.3 | 0.00 | 0.00 | 0.00 | 79 | 1010.8 |
| 20260508233042 | 25 | 117 | 4.8 | 11.3 | 0.00 | 0.00 | 0.00 | 78 | 1008.0 |
| 20260508231546 | 25 | 18 | 3.2 | 11.3 | 0.00 | 0.00 | 0.00 | 79 | 1008.2 |
| 20260508231544 | 25 | 17 | 3.2 | 11.3 | 0.00 | 0.00 | 0.00 | 79 | 1010.8 |
| 20260508230044 | 25 | 51 | 3.2 | 11.3 | 0.00 | 0.00 | 0.00 | 78 | 1008.2 |